Regional Weather Roundup
Issued by NWS Wakefield, VA

Home | Current Version | Previous Version | Graphics & Text | Print | Product List | Glossary On
Versions: 1 2 3 4 5 6 7 8 9 10 11 12 13 14 15 16 17 18 19 20 21 22 23 24 25 26 27 28 29 30 31 32 33 34 35 36 37 38 39 40 41 42 43 44 45 46 47 48 49 50
000
ASUS41 KAKQ 290710
RWRAKQ

REGIONAL WEATHER ROUNDUP
NATIONAL WEATHER SERVICE WAKEFIELD VA
300 AM EDT FRI AUG 29 2014

Note: "fair" indicates few or no clouds below 12,000 feet with no
significant weather and/or obstructions to visibility. * = Denotes
station may not report precipitation (e.g., rain,snow,etc.),
thunder or fog.

VAZ042-051-052>054-056-290800-
NORTHERN VIRGINIA

CITY           SKY/WX    TMP DP  RH WIND       PRES   REMARKS
WASH NATIONAL  CLEAR     69  53  56 NE9       30.12R
DULLES         CLEAR     58  54  86 CALM      30.13R
FORT BELVOIR   CLEAR     60  57  90 CALM      30.12R
QUANTICO       CLEAR     64  57  78 NW6       30.12R
FREDERICKSBRG* CLEAR     63  58  82 CALM      30.11R
STAFFORD*      CLEAR     58  58 100 CALM      30.15S
WARRENTON      CLEAR     54  54 100 CALM      30.12R
CULPEPER*      CLEAR    N/A N/A N/A CALM      30.13R
MANASSAS*      CLEAR     57  57 100 CALM      30.12R
LEESBURG*      CLEAR     63  55  77 NE5       30.14R
WINCHESTER     CLEAR     54  52  94 CALM      30.13S
$$

VAZ048-049-060>072-079>083-290800-
CENTRAL AND SOUTH CENTRAL VIRGINIA...AND NORTH CENTRAL NORTH CAROLINA

CITY           SKY/WX    TMP DP  RH WIND       PRES   REMARKS
RICHMOND       PTCLDY    69  59  70 N7        30.10R
CHESTERFIELD*  MOSUNNY  N/A N/A N/A NE3       30.11R
PETERSBURG*    MOCLDY    72  59  64 NE7       30.09S
HANOVER        CLEAR     64  60  87 CALM      30.12R
TAPPAHANNOCK*  PTCLDY    62  58  87 CALM      30.11R
CHARLOTTSVILLE CLEAR     63  55  75 CALM      30.12S
ORANGE*        PTCLDY    59  54  82 CALM      30.14S
LOUISA*        MOCLDY    66  57  72 CALM      30.11S
FARMVILLE*     CLEAR     68  66  94 N3        30.09R
SOUTH HILL*      N/A     72  70  94 CALM      30.12S
ROANOKE RAPIDS CLOUDY    72  70  94 NE7       30.06R
RALEIGH        TSTM      74  69  85 SE3       30.03F
$$

VAZ088>098-290800-
SOUTHEAST VIRGINIA

CITY           SKY/WX    TMP DP  RH WIND       PRES   REMARKS
NORFOLK        CLOUDY    76  67  73 NE7       30.06R
VIRGINIA BEACH CLOUDY    73  71  93 CALM      30.05S
NORFOLK NAVAL  CLOUDY    78  67  68 NE7       30.08R
WEST POINT*    PTCLDY    72  61  69 CALM      30.11R
NEWPORT NEWS   CLOUDY    79  66  64 NE6       30.08R
LANGLEY AFB    CLOUDY    75  70  83 E9        30.06R
FORT EUSTIS    CLOUDY    75  65  71 N3        30.06R
WILLIAMSBURG*  MOCLDY    73  68  83 CALM      30.09R
FRANKLIN*      CLOUDY    72  68  88 CALM      30.08R
WAKEFIELD      CLOUDY    74  70  87 CALM      30.08R
$$

VAZ020-022-025-037-045-290800-
WESTERN AND SOUTHWEST VIRGINIA

CITY           SKY/WX    TMP DP  RH WIND       PRES   REMARKS
STAUNTON*      CLEAR     59  54  82 CALM      30.17R
HOT SPRINGS VA CLEAR     57  50  76 E6        30.23F
LYNCHBURG      CLEAR     68  60  75 N10       30.13R
DANVILLE       CLEAR     73  67  81 NE9       30.07R
MARTINSVILLE   MOCLDY    72  70  93 N5        30.12R
ROANOKE        CLOUDY    69  62  78 NW3       30.14R
BLACKSBURG     CLEAR     63  63 100 CALM      30.18R
DUBLIN*        CLEAR     64  64  98 CALM      30.17S
MARION*        CLEAR    N/A N/A N/A CALM      30.19S FOG
HILLSVILLE*    PTCLDY    65  64  95 NE5       30.17F
RICHLANDS*     SUNNY     69  66  91 CALM      30.16S
WISE*          CLEAR     64  64 100 CALM      30.17S FOG
ABINGDON*      CLEAR     69  66  90 E5        30.12S
$$

MDZ021>025-VAZ099-100-290800-
SOUTHERN MARYLAND AND THE DELMARVA PENINSULA

CITY           SKY/WX    TMP DP  RH WIND       PRES   REMARKS
PATUXENT RIVER CLEAR     60  55  83 CALM      30.09S
BAY BRIDGE APT   N/A     64  48  55 N3        30.11R
LEONARDTOWN    CLEAR     59  55  88 CALM      30.11R
DOVER          CLEAR     58  53  84 N9        30.08S
GEORGETOWN     CLEAR     64  54  69 NE7       30.09S
EASTON         CLEAR     63  55  75 CALM      30.14R
CAMBRIDGE      CLEAR     64  54  68 N7        30.09S
SALISBURY      CLEAR     60  55  83 CALM      30.09R
OCEAN CITY     CLEAR     60  55  83 N5        30.08R
WALLOPS ISLAND CLEAR     66  57  72 N5        30.08S
ACCOMACK*      NOT AVBL
$$

NCZ012>017-030>032-290800-
EASTERN NORTH CAROLINA

CITY           SKY/WX    TMP DP  RH WIND       PRES   REMARKS
ELIZABETH CITY MOCLDY    76  71  85 E6        30.04F
AHOSKIE*       MOCLDY    71  70  96 N6        30.05F
EDENTON*       CLOUDY    75  73  91 NE5       30.04R
CURRITUCK*     CLOUDY    73  69  89 CALM      30.06S
KILL DEVIL HLS MOCLDY    76  72  88 SE3       30.04S
MANTEO         CLOUDY    76  72  87 E7        30.05S
CAPE HATTERAS  PTCLDY    74  74 100 SE3       30.04S
GOLDSBORO      CLEAR     74  74  97 S2        30.01S
WASHINGTON     CLEAR     73  71  95 CALM      30.03S
GREENVILLE     MOCLDY    75  73  94 CALM      30.04S
NEW BERN       CLEAR     74  69  85 SW5       30.04S
WILMINGTON     CLEAR     73  70  90 CALM      30.04R
$$

VAZ048-290800-
ELSEWHERE

CITY           SKY/WX    TMP DP  RH WIND       PRES   REMARKS
HARRISBURG PA  PTCLDY    59  50  72 N3        30.13S
BALTIMORE      PTCLDY    64  49  57 NE5       30.12R
ANNAPOLIS      CLEAR     69  55  60 N7        30.11R
ANDREWS AFB    CLEAR     61  54  77 NE7       30.11R
WILMINGTON DE  CLEAR     58  50  75 N6        30.11S
PHILADELPHIA   CLEAR     64  48  56 N7        30.10S
WILDWOOD NJ*   CLEAR     63  46  55 N8        30.09S
ATLANTIC CITY  CLEAR     56  50  80 N5        30.08S
HENDERSON NC   PTCLDY    71  67  88 NE7       30.07R
GREENSBORO     PTCLDY    76  67  73 N6        30.06S
ROCKY MOUNT    CLEAR     73  71  93 CALM      30.02S FOG
FAYETTEVILLE   CLEAR     73  68  84 SW6       30.02F
CHARLOTTE      PTCLDY    74  66  76 S3        30.05S
$$

VAZ100-290800-
MARINE

STATION/POSITION TIME  TEMP    WIND        PRES    WAVE   SWELL
                       AIR SEA DIR/SP/G            HT/PER HT/PER
                 (UTC) (F)     (DEG/KT/KT) (MB)    (FT/S) (FT/S)
44066 TX TWR #4  0700   70 72  360/ 16/ 19 1016.8R   5/11   3/11
CAPE MAY NJ      0700   66 79   30/  3/  5 1018.1F
LEWES DE         0700   70 75   20/ 20/ 23 1018.3F
15NM E FENWICK I 0700   72 73              1017.8R   4/10
OCEAN-CITY-INLET 0700   71 76   30/  8/ 12 1018.0R
WACHAPREAGUE VA  0700   69 80  330/  2/  5 1018.5S
THOMAS POINT MD  0700   69 77   40/ 18/ 19 1020.1R
GOOSES REEF MD   0700   73      70/ 17/ 21 1019.3R
COVE POINT MD    0700   71      80/  4/  5 1018.9R
SOLOMONS ISLAND  0700      80                N/A
BISHOPS HEAD MD  0700   71 76   40/  5/  7 1018.3R
PINEY POINT MD   0700           50/  3/  4   N/A
POTOMAC MD       0700   75      70/ 10/ 12 1018.1S
CAMBRIDGE MD     0700   67 80   30/ 11/ 12 1018.8R
LEWISETTA VA     0700   75 79   70/  9/ 13 1018.5S
RAPPAHANNOCK LGT 0700           40/ 12/ 13 1019.0R
STINGRAY PT      0700   76      60/ 14/ 16   N/A
YORK RVR RNG VA  0700   75      60/ 17/ 18 1017.9R
YORKTOWN VA      0700   76 80   40/  9/ 10 1018.0S
JAMESTOWN VA     0700   73      50/  4/  6   N/A
DOMINION TERM VA 0700   78      80/  2/  6 1018.1R
KIPTOPEKE VA     0700      81   90/  5/  8   N/A
CHES BAY BRIDGE  0700   76 78   50/ 11/ 12 1017.5R
CAPE HENRY VA    0700   76      70/ 12/ 13 1016.7R
CHESAPEAKE LGHT  0600   75      80/ 12/ 13 1018.4S
WILLOUBY STN VA  0700   77      70/ 10/ 11 1016.8S
S CRANEY ISL VA  0700           30/  5/  6 1017.6R
CAPE HENRY BUOY  0700      78                N/A     3/10   2/11
1ST LANDING BUOY 0700   76      70/ 12/ 14 1017.6R
CAPE CHARLES BUO 0700      77                N/A     3/10   2/10
OFFSHORE WE BUOY 0700      76                N/A     3/10   3/10
64NM E OF VA BCH 0700   76 75   60/  6/  8 1017.5S   4/ 9   3/ 9
DUCK PIER NC     0700   77 78  120/  7/  9 1016.6S
44056 DUCK FRF   0700                        N/A     2/ 9   2/11
OREGON INLET NC  0700   77 80   90/  4/  7 1017.2S
HATTERAS NC      0700   80 81  150/  3/  4 1017.5S
DIAMOND SHLS NC  0700   80     320/  2/  4 1017.1F   4/ 8   5/ 8
CAPE LOOKOUT NC  0700   80     240/  8/ 10 1017.0F
$$



USA.gov is the U.S. government's official web portal to all federal, state and local government web resources and services.